Weather History for Jonesboro, AR

Change the Weather History Date:

Friday, June 29, 2012

  Actual Average Record
Temperature  
Mean Temperature 90 °F 80 °F  
Max Temperature 104 °F 91 °F 110 °F (1901)
Min Temperature 76 °F 70 °F 54 °F (1907)
Degree Days  
Heating Degree Days 0 0  
Month to date heating degree days 0 0  
Since 1 June heating degree days 0 0  
Since 1 July heating degree days 2688 3652  
Cooling Degree Days 25 15  
Month to date cooling degree days 375 367  
Year to date cooling degree days 879 580  
Since 1 June cooling degree days 375 367  
Growing Degree Days 40 (Base 50)    
Moisture  
Dew Point 66 °F    
Average Humidity 49    
Maximum Humidity 76    
Minimum Humidity 22    
Precipitation  
Precipitation 0.00 in 0.18 in 1.19 in (2014)
Month to date precipitation 2.19 3.58  
Year to date precipitation 14.74 24.86  
Snow  
Snow 0.00 in 0.00 in - ()
Month to date snowfall 0.0 0.0  
Since 1 June snowfall 0.0 0.0  
Since 1 July snowfall 5.5 4.8  
Snow Depth 0.00 in    
Sea Level Pressure  
Sea Level Pressure 29.90 in    
Wind  
Wind Speed 8 mph (WSW)    
Max Wind Speed 15 mph    
Max Gust Speed 20 mph    
Visibility 10 miles    
Events      
T = Trace of Precipitation, MM = Missing Value Source: NWS Daily Summary

Daily Weather History Graph

Daily Weather History Graph

Search for Another Location

Airport:

Trip Planner

Search our weather history database for the weather conditions in past years. The results will help you decide how hot, cold, wet, or windy it might be!

Date:

Astronomy

Jun. 29, 2012 Rise Set
Actual Time 5:49 AM CDT 8:22 PM CDT
Civil Twilight 5:19 AM CDT 8:52 PM CDT
Nautical Twilight 4:41 AM CDT 9:30 PM CDT
Astronomical Twilight 4:00 AM CDT 10:11 PM CDT
Moon 4:12 PM CDT (6/29) 1:55 AM CDT (6/29)
Length of Visible Light 15h 33m
Length of Day
14h 33m
Waxing Gibbous, 78% of the Moon is Illuminated
Jun 29
Waxing Gibbous
Jul 3
Full
Jul 10
Last Quarter
Jul 18
New
Jul 26
First Quarter

Hourly Weather History & Observations

Time (CDT) Temp. Heat Index Dew Point Humidity Pressure Visibility Wind Dir Wind Speed Gust Speed Precip Events Conditions
12:53 AM 84.9 °F 88.2 °F 68.0 °F 57% 29.94 in 10.0 mi SW 10.4 mph - N/A   Clear
1:53 AM 82.9 °F 86.5 °F 69.1 °F 63% 29.93 in 10.0 mi SW 9.2 mph - N/A   Clear
2:53 AM 82.0 °F 85.9 °F 70.0 °F 67% 29.93 in 10.0 mi WSW 6.9 mph - N/A   Clear
3:53 AM 80.1 °F 83.2 °F 70.0 °F 71% 29.93 in 10.0 mi WSW 8.1 mph - N/A   Clear
4:53 AM 77.0 °F - 70.0 °F 79% 29.93 in 10.0 mi SW 6.9 mph - N/A   Clear
5:53 AM 77.0 °F - 69.1 °F 76% 29.94 in 9.0 mi West 3.5 mph - N/A   Clear
6:53 AM 80.6 °F 83.9 °F 69.8 °F 70% 29.96 in 9.0 mi West 5.8 mph - N/A   Clear
7:53 AM 87.1 °F 89.2 °F 66.0 °F 49% 29.96 in 10.0 mi West 8.1 mph - N/A   Clear
8:53 AM 91.0 °F 93.0 °F 64.9 °F 42% 29.96 in 10.0 mi NW 6.9 mph - 0.00 in   Clear
9:53 AM 95.0 °F 97.0 °F 64.0 °F 36% 29.96 in 10.0 mi WNW 11.5 mph - N/A   Clear
10:53 AM 98.1 °F 100.7 °F 64.0 °F 33% 29.95 in 10.0 mi West 11.5 mph - N/A   Clear
11:53 AM 100.0 °F 103.0 °F 64.0 °F 31% 29.94 in 10.0 mi NNW 8.1 mph - N/A   Clear
12:53 PM 102.0 °F 104.6 °F 63.0 °F 28% 29.92 in 10.0 mi West 8.1 mph - N/A   Clear
1:53 PM 102.9 °F 104.8 °F 62.1 °F 26% 29.90 in 10.0 mi Variable 3.5 mph - N/A   Clear
2:53 PM 104.0 °F 106.6 °F 63.0 °F 26% 29.88 in 10.0 mi SSW 11.5 mph 17.3 mph N/A   Clear
3:53 PM 102.9 °F 104.2 °F 61.0 °F 25% 29.87 in 10.0 mi SSW 9.2 mph - N/A   Clear
4:53 PM 104.0 °F 103.4 °F 57.0 °F 21% 29.86 in 10.0 mi SW 6.9 mph - N/A   Clear
5:53 PM 100.0 °F 104.9 °F 66.9 °F 34% 29.84 in 9.0 mi SSE 10.4 mph - N/A   Clear
6:53 PM 99.0 °F 98.1 °F 57.9 °F 25% 29.83 in 10.0 mi SSW 12.7 mph - N/A   Clear
7:53 PM 95.0 °F 97.9 °F 66.0 °F 38% 29.83 in 10.0 mi SSW 10.4 mph - N/A   Clear
8:53 PM 91.0 °F 93.8 °F 66.0 °F 44% 29.83 in 10.0 mi SSW 9.2 mph - N/A   Clear
9:53 PM 87.1 °F 89.9 °F 66.9 °F 51% 29.84 in 10.0 mi South 5.8 mph - N/A   Clear
10:53 PM 87.1 °F 90.6 °F 68.0 °F 53% 29.85 in 10.0 mi SW 8.1 mph - N/A   Clear
11:53 PM 84.0 °F 87.8 °F 69.1 °F 61% 29.86 in 10.0 mi SSW 5.8 mph - N/A   Clear